Terminal Aerodrome Forecast
Issued by NWS

Home | Current Version | Previous Version | Text Only | Print | Product List | Glossary On
Versions: 1 2 3 4 5 6 7 8 9 10 11 12 13 14 15 16 17 18 19 20 21 22 23 24 25 26 27
031
FTUS43 KDVN 041129 AAA
TAFCID
TAF AMD
KCID 041129Z 0411/0512 14007KT 1SM -SN BR OVC004
     FM042100 22006KT 4SM BR OVC007
     FM050000 24006KT 5SM BR OVC015
     FM050300 VRB05KT 4SM BR FEW250=

USA.gov is the U.S. government's official web portal to all federal, state and local government web resources and services.